TimeCDT,TemperatureF,Dew PointF,Humidity,Sea Level PressureIn,VisibilityMPH,Wind Direction,Wind SpeedMPH,Gust SpeedMPH,PrecipitationIn,Events,Conditions,WindDirDegrees,DateUTC
12:15 AM,62.6,60.8,94,29.89,7.0,SE,4.6,-,N/A,,Scattered Clouds,130,2013-05-17 05:15:00
12:35 AM,62.6,60.8,94,29.89,7.0,ESE,4.6,-,N/A,,Mostly Cloudy,120,2013-05-17 05:35:00
12:55 AM,62.6,60.8,94,29.89,5.0,SE,3.5,-,N/A,,Scattered Clouds,140,2013-05-17 05:55:00
1:15 AM,60.8,60.8,100,29.89,5.0,Calm,Calm,-,N/A,,Clear,0,2013-05-17 06:15:00
1:35 AM,60.8,60.8,100,29.89,4.0,ESE,3.5,-,N/A,,Clear,110,2013-05-17 06:35:00
1:55 AM,59.0,59.0,100,29.89,2.0,Calm,Calm,-,N/A,,Scattered Clouds,0,2013-05-17 06:55:00
2:15 AM,60.8,59.0,94,29.89,2.5,Calm,Calm,-,N/A,,Scattered Clouds,0,2013-05-17 07:15:00
2:35 AM,59.0,59.0,100,29.89,2.0,Calm,Calm,-,N/A,,Overcast,0,2013-05-17 07:35:00
2:55 AM,60.8,59.0,94,29.89,0.8,Calm,Calm,-,N/A,,Mostly Cloudy,0,2013-05-17 07:55:00
3:15 AM,59.0,59.0,100,29.89,0.2,Calm,Calm,-,N/A,Fog,Fog,0,2013-05-17 08:15:00
3:35 AM,57.2,55.4,94,29.89,0.2,Calm,Calm,-,N/A,Fog,Fog,0,2013-05-17 08:35:00
3:55 AM,59.0,59.0,100,29.89,0.2,Calm,Calm,-,N/A,Fog,Fog,0,2013-05-17 08:55:00
4:15 AM,57.2,57.2,100,29.89,0.2,Calm,Calm,-,N/A,Fog,Fog,0,2013-05-17 09:15:00
4:35 AM,57.2,55.4,94,29.90,0.2,Calm,Calm,-,N/A,Fog,Fog,0,2013-05-17 09:35:00
4:55 AM,55.4,55.4,100,29.89,0.2,Calm,Calm,-,N/A,Fog,Fog,0,2013-05-17 09:55:00
5:15 AM,59.0,59.0,100,29.90,0.2,Calm,Calm,-,N/A,Fog,Fog,0,2013-05-17 10:15:00
5:35 AM,60.8,60.8,100,29.90,0.2,SSE,5.8,-,N/A,Fog,Fog,150,2013-05-17 10:35:00
5:55 AM,60.8,60.8,100,29.91,0.2,Calm,Calm,-,N/A,Fog,Fog,0,2013-05-17 10:55:00
6:15 AM,60.8,60.8,100,29.91,0.2,Calm,Calm,-,N/A,Fog,Fog,0,2013-05-17 11:15:00
6:35 AM,60.8,60.8,100,29.92,0.2,South,5.8,-,N/A,Fog,Fog,190,2013-05-17 11:35:00
6:55 AM,60.8,60.8,100,29.92,0.2,South,3.5,-,N/A,Fog,Fog,170,2013-05-17 11:55:00
7:15 AM,60.8,60.8,100,29.93,0.2,Calm,Calm,-,N/A,Fog,Fog,0,2013-05-17 12:15:00
7:35 AM,60.8,60.8,100,29.92,0.2,East,3.5,-,N/A,Fog,Fog,100,2013-05-17 12:35:00
7:55 AM,60.8,60.8,100,29.93,0.2,Calm,Calm,-,N/A,Fog,Fog,0,2013-05-17 12:55:00
8:15 AM,60.8,60.8,100,29.93,0.5,ESE,3.5,-,N/A,Fog,Fog,110,2013-05-17 13:15:00
8:35 AM,62.6,62.6,100,29.93,1.5,ESE,3.5,-,N/A,,Overcast,120,2013-05-17 13:35:00
8:55 AM,62.6,62.6,100,29.95,5.0,Calm,Calm,-,N/A,,Overcast,0,2013-05-17 13:55:00
9:15 AM,62.6,62.6,100,29.94,10.0,ESE,3.5,-,N/A,,Mostly Cloudy,110,2013-05-17 14:15:00
9:35 AM,64.4,64.4,100,29.95,10.0,East,4.6,-,N/A,,Scattered Clouds,100,2013-05-17 14:35:00
9:55 AM,68.0,64.4,88,29.95,10.0,SE,3.5,-,N/A,,Scattered Clouds,130,2013-05-17 14:55:00
10:15 AM,69.8,64.4,83,29.95,10.0,SE,4.6,-,N/A,,Scattered Clouds,130,2013-05-17 15:15:00
10:35 AM,68.0,62.6,83,29.95,10.0,Calm,Calm,-,N/A,,Mostly Cloudy,0,2013-05-17 15:35:00
10:55 AM,69.8,62.6,78,29.95,10.0,ESE,3.5,-,N/A,,Overcast,120,2013-05-17 15:55:00
11:15 AM,71.6,64.4,78,29.95,10.0,ESE,4.6,-,N/A,,Mostly Cloudy,110,2013-05-17 16:15:00
11:35 AM,71.6,64.4,78,29.95,10.0,East,6.9,-,N/A,,Scattered Clouds,100,2013-05-17 16:35:00
11:55 AM,73.4,62.6,69,29.95,10.0,East,5.8,-,N/A,,Scattered Clouds,100,2013-05-17 16:55:00
12:15 PM,73.4,64.4,73,29.95,10.0,East,6.9,-,N/A,,Scattered Clouds,100,2013-05-17 17:15:00
12:35 PM,73.4,62.6,69,29.94,10.0,SE,5.8,-,N/A,,Scattered Clouds,140,2013-05-17 17:35:00
12:55 PM,75.2,62.6,65,29.93,10.0,SSE,6.9,-,N/A,,Scattered Clouds,150,2013-05-17 17:55:00
1:15 PM,77.0,64.4,65,29.93,10.0,SE,6.9,-,N/A,,Scattered Clouds,130,2013-05-17 18:15:00
1:35 PM,77.0,64.4,65,29.93,10.0,ESE,8.1,-,N/A,,Scattered Clouds,120,2013-05-17 18:35:00
1:55 PM,77.0,64.4,65,29.93,10.0,SE,4.6,-,N/A,,Scattered Clouds,140,2013-05-17 18:55:00
2:15 PM,77.0,62.6,61,29.93,10.0,South,5.8,-,N/A,,Mostly Cloudy,180,2013-05-17 19:15:00
2:35 PM,78.8,64.4,61,29.92,10.0,South,6.9,-,N/A,,Mostly Cloudy,170,2013-05-17 19:35:00
2:55 PM,78.8,62.6,57,29.92,10.0,SSW,6.9,-,N/A,,Scattered Clouds,210,2013-05-17 19:55:00
3:15 PM,78.8,64.4,61,29.92,10.0,SSE,5.8,-,N/A,,Scattered Clouds,150,2013-05-17 20:15:00
3:35 PM,78.8,64.4,61,29.91,10.0,SE,3.5,-,N/A,,Scattered Clouds,130,2013-05-17 20:35:00
3:55 PM,78.8,64.4,61,29.91,10.0,South,8.1,-,N/A,,Scattered Clouds,180,2013-05-17 20:55:00
4:15 PM,78.8,64.4,61,29.90,10.0,South,5.8,-,N/A,,Scattered Clouds,180,2013-05-17 21:15:00
4:35 PM,78.8,64.4,61,29.90,10.0,South,5.8,-,N/A,,Scattered Clouds,170,2013-05-17 21:35:00
4:55 PM,78.8,64.4,61,29.90,10.0,SSE,4.6,-,N/A,,Scattered Clouds,160,2013-05-17 21:55:00
5:15 PM,78.8,64.4,61,29.90,10.0,SW,6.9,-,N/A,,Scattered Clouds,220,2013-05-17 22:15:00
5:35 PM,78.8,64.4,61,29.90,10.0,SSE,4.6,-,N/A,,Clear,160,2013-05-17 22:35:00
5:55 PM,78.8,64.4,61,29.89,10.0,South,6.9,-,N/A,,Clear,170,2013-05-17 22:55:00
6:15 PM,78.8,64.4,61,29.89,10.0,South,3.5,-,N/A,,Clear,190,2013-05-17 23:15:00
6:35 PM,78.8,64.4,61,29.89,10.0,SSE,4.6,-,N/A,,Clear,160,2013-05-17 23:35:00
6:55 PM,78.8,64.4,61,29.88,10.0,South,5.8,-,N/A,,Clear,170,2013-05-17 23:55:00
7:35 PM,77.0,66.2,69,29.89,10.0,SSE,3.5,-,N/A,,Clear,160,2013-05-18 00:35:00
7:55 PM,75.2,68.0,78,29.89,10.0,South,3.5,-,N/A,,Clear,180,2013-05-18 00:55:00
8:15 PM,73.4,66.2,78,29.89,10.0,South,3.5,-,N/A,,Clear,190,2013-05-18 01:15:00
8:35 PM,71.6,66.2,83,29.90,10.0,SSW,4.6,-,N/A,,Scattered Clouds,200,2013-05-18 01:35:00
8:55 PM,71.6,66.2,83,29.90,7.0,South,4.6,-,N/A,,Scattered Clouds,180,2013-05-18 01:55:00
9:15 PM,71.6,66.2,83,29.91,7.0,South,4.6,-,N/A,,Scattered Clouds,170,2013-05-18 02:15:00
9:35 PM,69.8,66.2,88,29.91,7.0,SSE,3.5,-,N/A,,Scattered Clouds,150,2013-05-18 02:35:00
9:55 PM,69.8,66.2,88,29.91,7.0,SE,3.5,-,N/A,,Scattered Clouds,130,2013-05-18 02:55:00
10:15 PM,69.8,68.0,94,29.92,7.0,SE,4.6,-,N/A,,Scattered Clouds,130,2013-05-18 03:15:00
10:35 PM,69.8,68.0,94,29.93,7.0,SE,3.5,-,N/A,,Scattered Clouds,130,2013-05-18 03:35:00
10:55 PM,69.8,68.0,94,29.93,7.0,SE,3.5,-,N/A,,Mostly Cloudy,140,2013-05-18 03:55:00
11:15 PM,71.6,68.0,88,29.93,7.0,SSE,4.6,-,N/A,,Mostly Cloudy,150,2013-05-18 04:15:00
11:35 PM,71.6,68.0,88,29.92,7.0,SE,3.5,-,N/A,,Mostly Cloudy,130,2013-05-18 04:35:00
11:55 PM,71.6,68.0,88,29.92,5.0,SE,4.6,-,N/A,,Overcast,140,2013-05-18 04:55:00